GW1801 Weather Reports


Display with metric or nautical units.
time (UTC)temp
F
wind
direction
speed
MPH
gust
MPH
rain 1hr
in
rain 24hr
in
rain mn
in
humidity
%
barometer
mb
20260906114525 66 42 0.0 0.0 0.00 0.00 0.00 94 1019.7
20260906113019 66 42 0.0 0.0 0.00 0.00 0.00 94 1019.4
20260906111528 66 42 0.0 0.0 0.00 0.00 0.00 94 1019.5
20260906110020 67 42 0.0 0.0 0.00 0.00 0.00 94 1019.4
20260906104518 67 42 0.0 0.0 0.00 0.00 0.00 94 1019.3
20260906103021 67 42 0.0 0.0 0.00 0.00 0.00 94 1019.3
20260906101525 67 42 0.0 0.0 0.00 0.00 0.00 94 1019.0
20260906100031 67 42 0.0 0.0 0.00 0.00 0.00 94 1018.9
20260906094524 67 42 0.0 0.0 0.00 0.00 0.00 94 1018.9
20260906093019 67 42 0.0 0.0 0.00 0.00 0.00 93 1018.9
20260906091527 67 42 0.0 0.0 0.00 0.00 0.00 93 1018.6
20260906090030 67 42 0.0 0.0 0.00 0.00 0.00 93 1018.7
20260906084538 67 22 0.0 0.0 0.00 0.00 0.00 93 1018.7
20260906083015 67 21 0.0 0.0 0.00 0.00 0.00 93 1018.7
20260906081537 67 19 0.0 0.0 0.00 0.00 0.00 92 1018.6
20260906080025 67 19 0.0 0.0 0.00 0.00 0.00 92 1018.6
20260906074533 68 19 0.0 0.0 0.00 0.00 0.00 92 1018.6
20260906073010 68 19 0.0 0.0 0.00 0.00 0.00 92 1018.7
20260906071516 68 19 0.0 0.0 0.00 0.00 0.00 92 1018.6
20260906070025 68 19 0.0 0.0 0.00 0.00 0.00 92 1018.8
20260906064530 69 19 0.0 0.0 0.00 0.00 0.00 92 1018.8
20260906063034 69 49 0.0 0.0 0.00 0.00 0.00 92 1018.8
20260906061519 69 49 0.0 0.0 0.00 0.00 0.00 91 1018.8
20260906060023 70 49 0.0 0.0 0.00 0.00 0.00 91 1018.8
20260906054525 70 49 0.0 0.0 0.00 0.00 0.00 91 1018.9
20260906053030 70 49 0.0 0.0 0.00 0.00 0.00 90 1018.8
20260906051530 70 49 0.0 0.0 0.00 0.00 0.00 90 1018.5
20260906050019 70 49 0.0 0.0 0.00 0.00 0.00 91 1018.6
20260906044528 70 49 0.0 0.0 0.00 0.00 0.00 91 1018.4
20260906043030 70 49 0.0 0.0 0.00 0.00 0.00 91 1018.3
20260906041538 70 49 0.0 0.0 0.00 0.00 0.00 90 1018.1
20260906040038 70 43 0.0 0.0 0.00 0.00 0.00 90 1018.0
20260906034521 70 43 0.0 0.0 0.00 0.00 0.00 90 1017.8
20260906033027 70 40 0.0 0.0 0.00 0.00 0.00 89 1017.9
20260906031544 70 40 0.0 6.0 0.00 0.01 0.00 89 1017.9
20260906030008 71 53 0.0 0.0 0.00 0.01 0.00 88 1018.0
20260906024514 71 39 0.0 6.0 0.00 0.09 0.00 88 1017.9
20260906023020 71 48 0.0 3.0 0.00 0.09 0.00 87 1017.7
20260906021526 71 53 0.0 0.0 0.00 0.09 0.00 87 1017.7
20260906020048 72 53 0.0 0.0 0.00 0.09 0.00 87 1017.8
20260906014509 72 53 0.0 0.0 0.00 0.09 0.00 87 1017.8
20260906013016 72 50 0.0 6.0 0.00 0.09 0.00 87 1017.8
20260906011523 72 30 0.0 5.0 0.00 0.09 0.00 87 1017.9
20260906010030 72 44 0.0 6.0 0.00 0.09 0.00 87 1017.7
20260906004532 72 57 0.0 4.0 0.00 0.09 0.00 87 1017.5
20260906003022 72 50 0.0 4.0 0.00 0.09 0.00 86 1017.5
20260906001519 72 46 0.0 9.0 0.00 0.09 0.00 86 1017.5
20260906000026 72 70 0.0 4.0 0.00 0.09 0.00 86 1017.2
20260905234534 72 55 0.0 6.0 0.00 0.09 0.00 86 1017.2
20260905233033 73 31 2.0 10.0 0.00 0.09 0.00 85 1017.3
20260905231516 73 37 1.0 11.0 0.00 0.09 0.00 85 1017.2
20260905230026 74 74 0.0 10.0 0.00 0.09 0.00 83 1017.0
20260905224530 77 51 2.0 7.0 0.00 0.09 0.00 79 1016.7
20260905223039 78 43 1.0 6.0 0.00 0.09 0.00 78 1016.6
20260905221533 79 78 1.0 9.0 0.00 0.09 0.00 76 1016.7
20260905220026 79 36 0.0 7.0 0.00 0.09 0.00 76 1016.6
20260905214527 80 69 0.0 6.0 0.00 0.09 0.00 75 1016.4
20260905213034 80 44 0.0 6.0 0.00 0.09 0.00 78 1016.2
20260905211542 80 41 0.0 10.0 0.00 0.09 0.00 78 1016.0
20260905210019 81 42 0.0 6.0 0.00 0.09 0.00 75 1016.0
20260905204527 82 37 0.0 6.0 0.00 0.09 0.00 72 1016.0
20260905203032 82 42 0.0 6.0 0.00 0.09 0.00 74 1016.1
20260905201537 80 36 1.0 5.0 0.00 0.09 0.00 75 1016.0
20260905200049 80 41 0.0 2.0 0.00 0.09 0.00 78 1016.1
20260905194524 79 41 0.0 4.0 0.00 0.09 0.00 79 1016.4
20260905193027 79 40 0.0 3.0 0.00 0.09 0.00 80 1016.7
20260905191534 77 43 0.0 0.0 0.00 0.09 0.00 83 1016.7
20260905190031 77 43 0.0 2.0 0.00 0.09 0.00 84 1016.9
20260905184536 77 42 0.0 5.0 0.00 0.09 0.00 84 1016.8
20260905183027 77 44 0.0 4.0 0.00 0.09 0.00 83 1016.8
20260905181503 77 44 0.0 0.0 0.00 0.09 0.00 83 1016.9
20260905180010 76 44 0.0 4.0 0.00 0.09 0.00 85 1016.8
20260905174515 76 44 0.0 0.0 0.00 0.09 0.00 85 1016.7
20260905173019 76 44 1.0 4.0 0.00 0.09 0.00 85 1016.7
20260905171538 75 43 0.0 6.0 0.00 0.09 0.00 86 1016.8
20260905170007 75 56 0.0 4.0 0.00 0.10 0.00 86 1017.0
20260905164511 76 38 2.0 5.0 0.00 0.10 0.00 86 1017.2
20260905163020 76 49 1.0 6.0 0.00 0.10 0.00 86 1017.0
20260905161537 76 43 3.0 6.0 0.00 0.10 0.00 86 1017.0
20260905160042 76 59 0.0 6.0 0.00 0.10 0.00 87 1016.9
20260905154508 75 53 0.0 0.0 0.00 0.10 0.00 87 1016.7
20260905153016 76 62 2.0 5.0 0.00 0.10 0.00 87 1016.6
20260905151522 76 61 0.0 6.0 0.00 0.10 0.00 87 1016.5
20260905150027 76 50 2.0 6.0 0.00 0.10 0.00 87 1016.3
20260905144507 75 53 0.0 5.0 0.00 0.10 0.00 90 1016.2
20260905143013 74 50 0.0 0.0 0.00 0.10 0.00 91 1016.0
20260905141522 74 50 1.0 5.0 0.00 0.10 0.00 91 1016.3
20260905140030 74 54 1.0 5.0 0.00 0.10 0.00 92 1016.3
20260905134530 74 69 0.0 0.0 0.00 0.10 0.00 93 1016.1
20260905133009 74 69 0.0 0.0 0.00 0.10 0.00 94 1016.1
20260905131515 73 69 0.0 0.0 0.00 0.10 0.00 94 1016.5
20260905130024 73 69 0.0 0.0 0.00 0.10 0.00 94 1015.9
20260905124540 72 69 0.0 0.0 0.00 0.10 0.00 95 1015.8
20260905123031 72 69 1.0 5.0 0.00 0.10 0.00 94 1015.6
20260905121512 72 70 0.0 3.0 0.00 0.10 0.00 94 1015.3
20260905120018 72 73 0.0 0.0 0.00 0.10 0.00 94 1014.9